Location: Le Vaud
(46.4779°N, 6.2346°E)
Time: 07:40:25
(UTC+00:00)

BREEZE-M DEB (TANK) - Pass Details

Date: 18 February 2020
Orbit: 670 x 22259 km, 51.2° (Epoch: 03 April)

Event Time Altitude Azimuth Distance (km) Brightness Sun altitude
Exits shadow 03:54:25 50° 297° (WNW) 1,675 4.3 -28.2°
Maximum altitude 03:56:03 62° 347° (NNW) 1,268 4.0 -27.9°
Drops below altitude 10° 04:00:26 10° 70° (ENE) 2,280 6.4 -27.1°
Sets 04:02:07 0° 75° (ENE) 3,056 7.4 -26.9°
